FW5890 Weather Reports


Display with metric or nautical units.
time (UTC)temp
F
wind
direction
speed
MPH
gust
MPH
rain 1hr
in
rain 24hr
in
rain mn
in
humidity
%
barometer
mb
20260503232523 70 328 1.0 6.0 0.00 0.00 0.00 30 1004.2
20260503232039 70 14 3.0 6.0 0.00 0.00 0.00 30 1004.3
20260503231559 70 328 2.0 9.0 0.00 0.00 0.00 29 1004.4
20260503231009 70 64 1.0 9.0 0.00 0.00 0.00 30 1004.3
20260503230553 70 319 3.0 10.0 0.00 0.00 0.00 30 1004.4
20260503230014 70 316 5.0 10.0 0.00 0.00 0.00 29 1004.4
20260503225544 70 312 1.0 9.0 0.00 0.00 0.00 28 1004.4
20260503225018 70 282 3.0 9.0 0.00 0.00 0.00 28 1004.5
20260503224537 70 320 3.0 11.0 0.00 0.00 0.00 29 1004.5
20260503224057 70 344 4.0 11.0 0.00 0.00 0.00 28 1004.5
20260503223517 70 312 2.0 9.0 0.00 0.00 0.00 29 1004.6
20260503223005 70 305 3.0 9.0 0.00 0.00 0.00 29 1004.6
20260503222526 70 310 3.0 6.0 0.00 0.00 0.00 30 1004.6
20260503222047 71 327 3.0 8.0 0.00 0.00 0.00 28 1004.6
20260503221529 71 333 2.0 9.0 0.00 0.00 0.00 29 1004.5
20260503221103 71 325 3.0 9.0 0.00 0.00 0.00 30 1004.6
20260503220509 71 325 2.0 7.0 0.00 0.00 0.00 31 1004.6
20260503220029 71 112 1.0 8.0 0.00 0.00 0.00 32 1004.6
20260503215509 71 19 2.0 10.0 0.00 0.00 0.00 30 1004.6
20260503215046 72 300 3.0 10.0 0.00 0.00 0.00 30 1004.6
20260503214606 72 290 0.0 6.0 0.00 0.00 0.00 33 1004.6
20260503214017 72 336 2.0 4.0 0.00 0.00 0.00 31 1004.7
20260503213537 71 318 1.0 5.0 0.00 0.00 0.00 31 1004.7
20260503213011 71 146 1.0 8.0 0.00 0.00 0.00 31 1004.8
20260503212534 71 326 1.0 8.0 0.00 0.00 0.00 31 1004.8
20260503212050 71 312 3.0 11.0 0.00 0.00 0.00 31 1004.8
20260503211525 71 244 2.0 11.0 0.00 0.00 0.00 34 1004.9
20260503211059 72 311 3.0 8.0 0.00 0.00 0.00 31 1004.9
20260503210542 71 348 1.0 5.0 0.00 0.00 0.00 33 1004.8
20260503210013 70 243 1.0 9.0 0.00 0.00 0.00 35 1005.0
20260503205509 70 323 3.0 9.0 0.00 0.00 0.00 32 1005.0
20260503205029 71 319 2.0 9.0 0.00 0.00 0.00 32 1005.1
20260503204548 71 294 2.0 9.0 0.00 0.00 0.00 33 1005.2
20260503204026 71 21 3.0 8.0 0.00 0.00 0.00 33 1005.3
20260503203604 70 59 3.0 9.0 0.00 0.00 0.00 34 1005.2
20260503203018 70 355 3.0 9.0 0.00 0.00 0.00 31 1005.4
20260503202559 70 350 3.0 9.0 0.00 0.00 0.00 32 1005.4
20260503202009 70 253 1.0 11.0 0.00 0.00 0.00 35 1005.4
20260503201529 70 355 3.0 11.0 0.00 0.00 0.00 33 1005.4
20260503201003 70 343 4.0 9.0 0.00 0.00 0.00 34 1005.5
20260503200522 70 332 1.0 9.0 0.00 0.00 0.00 34 1005.6
20260503200043 70 335 2.0 9.0 0.00 0.00 0.00 32 1005.6
20260503195518 71 294 3.0 6.0 0.00 0.00 0.00 34 1005.8
20260503195051 71 249 1.0 6.0 0.00 0.00 0.00 33 1005.8
20260503194512 71 30 2.0 8.0 0.00 0.00 0.00 33 1005.9
20260503194031 71 315 2.0 8.0 0.00 0.00 0.00 34 1005.8
20260503193509 71 312 1.0 4.0 0.00 0.00 0.00 33 1005.9
20260503193107 71 85 0.0 6.0 0.00 0.00 0.00 34 1005.9
20260503192526 71 198 2.0 6.0 0.00 0.00 0.00 34 1005.8
20260503192051 71 315 2.0 6.0 0.00 0.00 0.00 36 1005.9
20260503191505 70 78 2.0 9.0 0.00 0.00 0.00 37 1005.8
20260503191058 69 94 3.0 9.0 0.00 0.00 0.00 36 1005.8
20260503190529 70 331 3.0 8.0 0.00 0.00 0.00 35 1005.9
20260503190050 71 294 2.0 8.0 0.00 0.00 0.00 37 1005.9
20260503185517 70 315 2.0 8.0 0.00 0.00 0.00 37 1005.9
20260503185052 70 122 3.0 8.0 0.00 0.00 0.00 37 1005.9
20260503184522 70 59 3.0 7.0 0.00 0.00 0.00 37 1006.0
20260503184048 70 74 2.0 6.0 0.00 0.00 0.00 36 1006.1
20260503183522 70 103 2.0 6.0 0.00 0.00 0.00 34 1006.2
20260503183107 70 269 1.0 7.0 0.00 0.00 0.00 39 1006.2
20260503182522 69 78 1.0 19.0 0.00 0.00 0.00 38 1006.1
20260503182006 68 323 7.0 19.0 0.00 0.00 0.00 38 1006.1
20260503181555 69 319 4.0 11.0 0.00 0.00 0.00 38 1006.2
20260503181031 69 344 2.0 6.0 0.00 0.00 0.00 38 1006.3
20260503180559 69 346 1.0 8.0 0.00 0.00 0.00 39 1006.4
20260503180054 69 260 3.0 8.0 0.00 0.00 0.00 40 1006.3
20260503175533 69 326 1.0 12.0 0.00 0.00 0.00 42 1006.3
20260503175006 69 290 3.0 9.0 0.00 0.00 0.00 39 1006.4
20260503174603 69 306 1.0 6.0 0.00 0.00 0.00 42 1006.4
20260503174021 69 167 1.0 6.0 0.00 0.00 0.00 42 1006.5
20260503173546 68 175 2.0 9.0 0.00 0.00 0.00 42 1006.4
20260503173005 68 274 4.0 9.0 0.00 0.00 0.00 43 1006.4
20260503172550 68 355 2.0 11.0 0.00 0.00 0.00 46 1006.5
20260503172029 68 308 3.0 9.0 0.00 0.00 0.00 46 1006.4
20260503171611 68 338 4.0 9.0 0.00 0.00 0.00 44 1006.5
20260503171016 68 80 1.0 12.0 0.00 0.00 0.00 44 1006.5
20260503170509 68 294 3.0 12.0 0.00 0.00 0.00 46 1006.5
20260503151011 64 90 2.0 8.0 0.00 0.00 0.00 48 1006.2
20260503150556 64 159 2.0 9.0 0.00 0.00 0.00 47 1006.2
20260503131047 56 284 1.0 7.0 0.00 0.00 0.00 55 1005.4
20260503130607 56 238 1.0 7.0 0.00 0.00 0.00 56 1005.3
20260503110558 53 282 2.0 6.0 0.00 0.00 0.00 54 1004.2
20260503081538 57 337 1.0 9.0 0.00 0.00 0.00 49 1005.2
20260503081021 57 305 2.0 9.0 0.00 0.00 0.00 49 1005.3
20260503080556 57 286 2.0 7.0 0.00 0.00 0.00 49 1005.4
20260503072558 59 215 3.0 10.0 0.00 0.00 0.00 49 1006.0
20260503072035 59 326 2.0 9.0 0.00 0.00 0.00 49 1006.2
20260503071513 59 291 3.0 8.0 0.00 0.00 0.00 49 1006.4
20260503071033 60 232 1.0 9.0 0.00 0.00 0.00 50 1006.5
20260503070529 60 311 4.0 11.0 0.00 0.00 0.00 49 1006.7
20260503060105 60 336 4.0 19.0 0.00 0.00 0.00 52 1007.8
20260503055046 59 313 6.0 15.0 0.00 0.00 0.00 49 1008.1
20260503054507 58 316 5.0 13.0 0.00 0.00 0.00 50 1008.1
20260503054028 58 325 2.0 9.0 0.00 0.00 0.00 50 1008.2
20260503053557 58 335 3.0 9.0 0.00 0.00 0.00 50 1008.2
20260503053035 57 334 2.0 9.0 0.00 0.00 0.00 52 1008.2
20260503052506 56 294 4.0 9.0 0.00 0.00 0.00 53 1008.2
20260503052037 55 284 2.0 5.0 0.00 0.00 0.00 54 1008.3
20260503051509 55 283 0.0 4.0 0.00 0.00 0.00 53 1008.3
20260503051047 56 223 0.0 3.0 0.00 0.00 0.00 54 1008.3
20260503050522 56 226 0.0 4.0 0.00 0.00 0.00 53 1008.1
20260503050016 56 226 1.0 4.0 0.00 0.00 0.00 53 1008.2
20260503045506 56 236 1.0 3.0 0.00 0.00 0.00 53 1008.2
20260503045101 56 238 0.0 4.0 0.00 0.00 0.00 52 1008.2
20260503044557 57 224 0.0 4.0 0.00 0.00 0.00 51 1008.4
20260503044046 57 206 0.0 4.0 0.00 0.00 0.00 51 1008.4
20260503043520 57 257 1.0 5.0 0.00 0.00 0.00 50 1008.6
20260503043053 57 300 2.0 5.0 0.00 0.00 0.00 50 1008.6
20260503042548 57 238 1.0 3.0 0.00 0.00 0.00 50 1008.6
20260503042018 57 257 0.0 3.0 0.00 0.00 0.00 50 1008.7
20260503041505 57 255 0.0 3.0 0.00 0.00 0.00 50 1008.7
20260503041056 57 254 0.0 3.0 0.00 0.00 0.00 49 1008.8
20260503040528 57 242 1.0 3.0 0.00 0.00 0.00 49 1008.9
20260503040014 58 246 0.0 5.0 0.00 0.00 0.00 50 1009.0
20260503035510 58 252 0.0 3.0 0.00 0.00 0.00 49 1009.1
20260503035046 58 254 0.0 3.0 0.00 0.00 0.00 48 1009.1
20260503034525 59 254 1.0 3.0 0.00 0.00 0.00 48 1009.3
20260503034011 59 253 0.0 3.0 0.00 0.00 0.00 47 1009.3
20260503033534 59 256 0.0 3.0 0.00 0.00 0.00 47 1009.4
20260503033004 60 255 0.0 3.0 0.00 0.00 0.00 46 1009.4
20260503032557 60 255 0.0 3.0 0.00 0.00 0.00 45 1009.6
20260503032025 60 254 0.0 4.0 0.00 0.00 0.00 46 1009.7
20260503031544 61 254 1.0 4.0 0.00 0.00 0.00 44 1009.8
20260503031017 61 275 0.0 3.0 0.00 0.00 0.00 44 1009.9
20260503030600 61 275 0.0 3.0 0.00 0.00 0.00 44 1010.0
20260503030052 61 275 1.0 3.0 0.00 0.00 0.00 43 1010.1
20260503025508 61 264 0.0 5.0 0.00 0.00 0.00 44 1010.1
20260503025029 61 241 1.0 7.0 0.00 0.00 0.00 43 1010.3
20260503024555 61 322 3.0 10.0 0.00 0.00 0.00 43 1010.5
20260503024023 61 327 5.0 10.0 0.00 0.00 0.00 44 1010.7
20260503023608 61 340 2.0 5.0 0.00 0.00 0.00 44 1010.6
20260503023021 61 339 3.0 5.0 0.00 0.00 0.00 43 1010.7
20260503022503 61 332 2.0 4.0 0.00 0.00 0.00 43 1010.8
20260503022037 62 331 0.0 2.0 0.00 0.00 0.00 43 1010.8
20260503021557 62 331 0.0 3.0 0.00 0.00 0.00 43 1010.9
20260503021003 62 332 0.0 9.0 0.00 0.00 0.00 42 1010.9
20260503020523 62 313 0.0 9.0 0.00 0.00 0.00 42 1010.9
20260503020045 62 329 2.0 6.0 0.00 0.00 0.00 41 1010.9
20260503015515 63 325 1.0 12.0 0.00 0.00 0.00 41 1010.8
20260503015056 62 17 5.0 12.0 0.00 0.00 0.00 41 1010.8
20260503014527 63 345 5.0 12.0 0.00 0.00 0.00 42 1011.0
20260503014018 63 313 7.0 12.0 0.00 0.00 0.00 41 1011.1
20260503013601 63 316 2.0 12.0 0.00 0.00 0.00 41 1011.1
20260503013031 63 344 5.0 12.0 0.00 0.00 0.00 41 1011.2
20260503012507 63 325 5.0 12.0 0.00 0.00 0.00 39 1011.0
20260503012024 63 320 2.0 8.0 0.00 0.00 0.00 39 1011.0
20260503011551 63 334 1.0 8.0 0.00 0.00 0.00 39 1011.0
20260503011104 63 339 4.0 8.0 0.00 0.00 0.00 39 1011.0
20260503010515 63 275 0.0 7.0 0.00 0.00 0.00 40 1010.9
20260503010059 63 319 1.0 8.0 0.00 0.00 0.00 40 1010.9
20260503005524 63 312 2.0 9.0 0.00 0.00 0.00 42 1011.1
20260503005057 63 279 2.0 9.0 0.00 0.00 0.00 41 1011.1
20260503004524 62 330 1.0 5.0 0.00 0.00 0.00 41 1011.1
20260503004046 62 302 1.0 5.0 0.00 0.00 0.00 42 1011.2
20260503003604 62 311 1.0 4.0 0.00 0.00 0.00 43 1011.2
20260503003016 62 184 1.0 4.0 0.00 0.00 0.00 44 1011.1
20260503002559 62 56 0.0 4.0 0.00 0.00 0.00 46 1011.4
20260503002009 63 313 1.0 12.0 0.00 0.00 0.00 44 1011.4
20260503001529 63 250 1.0 12.0 0.00 0.00 0.00 42 1011.4
20260503001049 63 335 5.0 11.0 0.00 0.00 0.00 41 1011.8
20260503000612 63 327 3.0 5.0 0.00 0.00 0.00 41 1011.3
20260503000048 63 304 1.0 10.0 0.00 0.00 0.00 41 1011.3
20260502235602 63 324 1.0 10.0 0.00 0.00 0.00 40 1011.2
20260502235013 64 284 1.0 13.0 0.00 0.00 0.00 42 1011.3
20260502234533 64 157 1.0 14.0 0.00 0.00 0.00 41 1011.3
20260502234053 65 5 6.0 14.0 0.00 0.00 0.00 37 1011.7
20260502233518 65 312 1.0 3.0 0.00 0.00 0.00 37 1011.3
20260502233002 65 338 0.0 8.0 0.00 0.00 0.00 37 1011.2